Precipitable_Water
0.10 0.10 0.10 0.11 0.11 0.11 0.11 0.12 0.12 0.13 0.13 0.13 0.13 0.14 0.14 0.14 0.15 0.15 0.16 0.16 0.16 0.16 0.16 0.17 0.17 0.17 0.17 0.17 0.16 0.16 0.15 0.14 0.13 0.13 0.12 0.12 0.11 0.11 0.11 0.11 0.11 0.12 0.12 0.12 0.13 0.13 0.13 0.13 0.15 0.16 0.17 0.17 0.17 0.18 0.19 0.19 0.19 0.19 0.20 0.20 0.21 0.22 0.22 0.21 0.21 0.22 0.25 0.28 0.28 0.28 0.30 0.31 0.29 0.31 0.31 0.32 0.32 0.34 0.35 0.33 0.32 0.31 0.31 0.31 0.31
0.10 0.10 0.10 0.10 0.11 0.11 0.11 0.12 0.12 0.13 0.13 0.13 0.14 0.14 0.14 0.14 0.15 0.15 0.16 0.16 0.16 0.17 0.17 0.17 0.17 0.17 0.17 0.17 0.17 0.16 0.16 0.15 0.14 0.13 0.12 0.12 0.12 0.12 0.12 0.12 0.12 0.12 0.12 0.12 0.12 0.12 0.12 0.12 0.12 0.13 0.14 0.15 0.16 0.16 0.17 0.18 0.18 0.17 0.18 0.19 0.20 0.20 0.22 0.21 0.21 0.21 0.21 0.24 0.24 0.27 0.27 0.29 0.27 0.29 0.28 0.29 0.30 0.31 0.31 0.32 0.31 0.30 0.29 0.29 0.29
0.10 0.10 0.10 0.10 0.11 0.11 0.11 0.12 0.12 0.12 0.13 0.13 0.13 0.14 0.14 0.14 0.15 0.15 0.16 0.16 0.17 0.17 0.17 0.17 0.17 0.17 0.17 0.17 0.17 0.17 0.16 0.16 0.15 0.15 0.14 0.13 0.12 0.12 0.12 0.11 0.11 0.10 0.10 0.10 0.10 0.11 0.11 0.11 0.11 0.12 0.13 0.13 0.14 0.15 0.15 0.16 0.17 0.17 0.18 0.19 0.19 0.19 0.20 0.21 0.20 0.20 0.20 0.22 0.24 0.23 0.24 0.25 0.25 0.26 0.29 0.29 0.29 0.30 0.29 0.29 0.29 0.30 0.31 0.31 0.30
0.10 0.10 0.10 0.11 0.11 0.11 0.11 0.12 0.12 0.12 0.12 0.13 0.13 0.13 0.14 0.14 0.15 0.15 0.16 0.16 0.17 0.17 0.17 0.17 0.17 0.17 0.17 0.17 0.17 0.17 0.17 0.16 0.16 0.15 0.15 0.14 0.13 0.12 0.12 0.11 0.11 0.11 0.10 0.10 0.10 0.10 0.10 0.10 0.11 0.12 0.12 0.12 0.12 0.13 0.15 0.15 0.15 0.15 0.17 0.18 0.19 0.18 0.19 0.19 0.20 0.19 0.20 0.20 0.22 0.23 0.24 0.23 0.24 0.25 0.27 0.28 0.28 0.28 0.29 0.29 0.30 0.30 0.31 0.31 0.31
0.11 0.11 0.11 0.11 0.11 0.11 0.11 0.11 0.11 0.12 0.12 0.13 0.13 0.13 0.14 0.14 0.15 0.15 0.16 0.16 0.17 0.17 0.17 0.17 0.17 0.17 0.17 0.17 0.17 0.17 0.17 0.17 0.16 0.16 0.16 0.15 0.14 0.13 0.12 0.12 0.12 0.11 0.11 0.11 0.11 0.11 0.11 0.10 0.10 0.11 0.11 0.11 0.11 0.11 0.12 0.14 0.16 0.16 0.16 0.16 0.17 0.17 0.18 0.18 0.18 0.19 0.18 0.18 0.19 0.22 0.24 0.24 0.25 0.25 0.27 0.26 0.26 0.27 0.28 0.29 0.29 0.29 0.29 0.30 0.31
0.11 0.11 0.11 0.11 0.11 0.11 0.11 0.11 0.11 0.12 0.12 0.12 0.13 0.13 0.14 0.14 0.14 0.15 0.16 0.16 0.17 0.17 0.17 0.17 0.17 0.17 0.17 0.17 0.17 0.17 0.17 0.18 0.17 0.17 0.17 0.16 0.16 0.15 0.14 0.12 0.12 0.12 0.11 0.11 0.11 0.11 0.11 0.10 0.10 0.10 0.11 0.11 0.11 0.11 0.11 0.13 0.16 0.18 0.17 0.17 0.17 0.16 0.16 0.16 0.17 0.18 0.18 0.18 0.18 0.19 0.22 0.23 0.24 0.25 0.26 0.27 0.26 0.26 0.27 0.28 0.29 0.30 0.29 0.29 0.29
0.12 0.12 0.11 0.11 0.11 0.11 0.11 0.11 0.11 0.12 0.12 0.13 0.13 0.14 0.14 0.14 0.14 0.15 0.16 0.16 0.17 0.17 0.17 0.17 0.17 0.17 0.17 0.17 0.18 0.17 0.17 0.18 0.18 0.18 0.18 0.17 0.17 0.16 0.15 0.15 0.13 0.12 0.11 0.11 0.12 0.13 0.13 0.13 0.12 0.11 0.11 0.12 0.12 0.12 0.12 0.12 0.13 0.15 0.17 0.18 0.18 0.18 0.18 0.18 0.19 0.19 0.19 0.19 0.20 0.20 0.19 0.21 0.23 0.22 0.25 0.27 0.27 0.26 0.25 0.25 0.26 0.28 0.28 0.28 0.26
0.12 0.12 0.12 0.12 0.11 0.11 0.11 0.12 0.12 0.12 0.12 0.13 0.13 0.14 0.14 0.14 0.14 0.15 0.16 0.16 0.16 0.17 0.17 0.17 0.18 0.18 0.18 0.18 0.18 0.18 0.18 0.18 0.18 0.18 0.18 0.18 0.18 0.18 0.17 0.16 0.15 0.14 0.13 0.12 0.12 0.12 0.13 0.13 0.13 0.12 0.12 0.12 0.12 0.13 0.14 0.14 0.14 0.15 0.16 0.17 0.18 0.18 0.17 0.17 0.17 0.16 0.17 0.17 0.18 0.20 0.22 0.21 0.21 0.23 0.24 0.25 0.24 0.25 0.26 0.26 0.24 0.24 0.25 0.27 0.27
0.13 0.13 0.12 0.12 0.12 0.12 0.12 0.12 0.12 0.12 0.13 0.13 0.13 0.14 0.14 0.14 0.14 0.15 0.15 0.16 0.16 0.17 0.17 0.17 0.18 0.18 0.18 0.18 0.18 0.18 0.18 0.18 0.18 0.18 0.19 0.19 0.19 0.18 0.18 0.17 0.17 0.16 0.15 0.14 0.13 0.13 0.12 0.12 0.12 0.12 0.12 0.12 0.12 0.13 0.14 0.16 0.15 0.14 0.15 0.16 0.16 0.17 0.16 0.16 0.15 0.15 0.16 0.17 0.18 0.20 0.19 0.20 0.21 0.22 0.22 0.22 0.22 0.21 0.23 0.26 0.25 0.25 0.25 0.25 0.27
0.13 0.13 0.13 0.13 0.13 0.13 0.13 0.13 0.12 0.12 0.13 0.13 0.13 0.14 0.14 0.14 0.14 0.15 0.15 0.16 0.16 0.17 0.17 0.17 0.17 0.18 0.18 0.18 0.18 0.18 0.19 0.19 0.19 0.19 0.19 0.19 0.19 0.19 0.18 0.18 0.18 0.17 0.16 0.15 0.14 0.14 0.14 0.13 0.13 0.12 0.12 0.12 0.13 0.13 0.14 0.15 0.16 0.17 0.17 0.16 0.15 0.15 0.15 0.15 0.15 0.15 0.15 0.15 0.16 0.19 0.19 0.19 0.20 0.22 0.23 0.23 0.24 0.24 0.24 0.25 0.24 0.24 0.25 0.25 0.26
0.13 0.13 0.13 0.13 0.13 0.13 0.13 0.13 0.13 0.13 0.13 0.13 0.13 0.14 0.14 0.14 0.14 0.15 0.15 0.16 0.16 0.16 0.17 0.17 0.17 0.18 0.18 0.18 0.18 0.19 0.19 0.20 0.20 0.20 0.20 0.20 0.20 0.20 0.19 0.19 0.18 0.18 0.17 0.16 0.15 0.15 0.14 0.14 0.14 0.14 0.14 0.13 0.13 0.13 0.14 0.14 0.15 0.16 0.17 0.18 0.17 0.15 0.14 0.14 0.14 0.14 0.15 0.16 0.17 0.19 0.19 0.20 0.20 0.22 0.24 0.25 0.25 0.25 0.25 0.25 0.24 0.24 0.24 0.22 0.20
0.13 0.13 0.13 0.13 0.13 0.13 0.14 0.14 0.14 0.14 0.14 0.14 0.14 0.14 0.14 0.14 0.14 0.15 0.15 0.16 0.16 0.17 0.17 0.17 0.17 0.17 0.18 0.18 0.18 0.19 0.20 0.20 0.21 0.21 0.21 0.21 0.20 0.20 0.21 0.20 0.19 0.19 0.18 0.18 0.17 0.16 0.15 0.15 0.15 0.15 0.15 0.14 0.13 0.12 0.12 0.13 0.15 0.16 0.17 0.18 0.18 0.19 0.19 0.17 0.15 0.15 0.15 0.16 0.17 0.18 0.19 0.20 0.21 0.23 0.23 0.25 0.25 0.26 0.25 0.25 0.25 0.24 0.23 0.22 0.22
0.13 0.13 0.13 0.13 0.13 0.13 0.13 0.14 0.14 0.14 0.14 0.14 0.14 0.14 0.14 0.14 0.15 0.15 0.16 0.16 0.17 0.16 0.17 0.17 0.17 0.17 0.18 0.18 0.18 0.20 0.20 0.21 0.21 0.22 0.22 0.22 0.21 0.21 0.21 0.21 0.21 0.20 0.19 0.19 0.19 0.18 0.17 0.16 0.16 0.16 0.16 0.16 0.16 0.15 0.14 0.13 0.12 0.14 0.15 0.17 0.18 0.19 0.19 0.19 0.19 0.19 0.19 0.18 0.18 0.19 0.20 0.21 0.21 0.23 0.24 0.25 0.26 0.25 0.25 0.25 0.25 0.25 0.24 0.23 0.22
0.12 0.12 0.13 0.13 0.13 0.13 0.13 0.14 0.14 0.14 0.15 0.15 0.15 0.15 0.15 0.15 0.15 0.15 0.16 0.17 0.17 0.16 0.17 0.17 0.17 0.17 0.18 0.19 0.19 0.20 0.20 0.22 0.22 0.23 0.23 0.23 0.23 0.22 0.21 0.21 0.21 0.21 0.21 0.20 0.20 0.19 0.19 0.18 0.17 0.16 0.17 0.17 0.17 0.16 0.16 0.15 0.14 0.13 0.13 0.15 0.16 0.17 0.18 0.19 0.19 0.20 0.20 0.20 0.20 0.20 0.21 0.23 0.22 0.24 0.27 0.28 0.26 0.25 0.25 0.25 0.25 0.25 0.24 0.23 0.24
0.11 0.12 0.12 0.13 0.13 0.13 0.13 0.14 0.14 0.14 0.14 0.15 0.15 0.15 0.15 0.16 0.16 0.16 0.16 0.16 0.17 0.16 0.16 0.17 0.17 0.17 0.18 0.19 0.19 0.20 0.20 0.22 0.23 0.24 0.24 0.24 0.24 0.23 0.22 0.21 0.21 0.21 0.22 0.22 0.22 0.21 0.20 0.20 0.19 0.18 0.18 0.18 0.18 0.18 0.17 0.16 0.16 0.14 0.13 0.13 0.14 0.15 0.15 0.16 0.17 0.17 0.18 0.19 0.20 0.22 0.23 0.24 0.25 0.26 0.27 0.28 0.28 0.28 0.28 0.27 0.27 0.27 0.27 0.29 0.29
0.11 0.11 0.12 0.12 0.12 0.13 0.13 0.13 0.14 0.14 0.14 0.15 0.15 0.15 0.15 0.16 0.16 0.16 0.17 0.17 0.17 0.17 0.17 0.17 0.17 0.17 0.18 0.19 0.19 0.19 0.20 0.22 0.23 0.24 0.25 0.25 0.25 0.25 0.23 0.21 0.21 0.21 0.21 0.22 0.23 0.23 0.22 0.21 0.21 0.20 0.19 0.19 0.19 0.19 0.19 0.18 0.17 0.15 0.13 0.12 0.12 0.13 0.14 0.15 0.16 0.16 0.16 0.16 0.18 0.21 0.24 0.24 0.25 0.26 0.27 0.28 0.29 0.31 0.31 0.30 0.30 0.29 0.27 0.26 0.24
0.11 0.11 0.11 0.11 0.12 0.12 0.12 0.13 0.13 0.14 0.14 0.14 0.15 0.15 0.15 0.16 0.16 0.17 0.17 0.17 0.17 0.17 0.17 0.17 0.18 0.18 0.18 0.19 0.19 0.20 0.20 0.21 0.22 0.24 0.24 0.25 0.25 0.24 0.24 0.23 0.22 0.21 0.21 0.21 0.22 0.23 0.23 0.23 0.23 0.22 0.21 0.21 0.21 0.21 0.20 0.20 0.18 0.17 0.16 0.13 0.13 0.13 0.13 0.13 0.14 0.15 0.16 0.17 0.18 0.21 0.22 0.23 0.25 0.27 0.28 0.29 0.30 0.31 0.30 0.28 0.27 0.28 0.25 0.23 0.23
0.10 0.10 0.11 0.11 0.11 0.12 0.12 0.12 0.13 0.13 0.14 0.14 0.15 0.15 0.15 0.16 0.16 0.17 0.17 0.17 0.17 0.18 0.18 0.18 0.18 0.18 0.18 0.19 0.19 0.19 0.20 0.21 0.22 0.23 0.23 0.24 0.24 0.24 0.24 0.23 0.22 0.22 0.22 0.22 0.22 0.23 0.23 0.24 0.24 0.23 0.23 0.22 0.22 0.23 0.22 0.21 0.19 0.19 0.18 0.17 0.15 0.13 0.13 0.14 0.14 0.15 0.17 0.19 0.21 0.22 0.24 0.25 0.26 0.28 0.29 0.30 0.31 0.32 0.30 0.25 0.27 0.28 0.25 0.24 0.21
0.10 0.10 0.10 0.11 0.11 0.11 0.12 0.12 0.13 0.13 0.13 0.14 0.15 0.15 0.15 0.16 0.16 0.17 0.17 0.17 0.17 0.18 0.18 0.18 0.19 0.19 0.19 0.19 0.20 0.20 0.21 0.21 0.22 0.22 0.22 0.23 0.24 0.24 0.23 0.23 0.22 0.22 0.22 0.21 0.22 0.22 0.22 0.23 0.24 0.24 0.24 0.24 0.24 0.24 0.24 0.23 0.21 0.21 0.20 0.19 0.18 0.17 0.16 0.15 0.15 0.15 0.16 0.18 0.20 0.23 0.24 0.25 0.27 0.28 0.29 0.29 0.30 0.32 0.32 0.30 0.30 0.28 0.25 0.24 0.24
0.11 0.11 0.11 0.11 0.11 0.11 0.11 0.12 0.12 0.13 0.13 0.14 0.15 0.15 0.16 0.16 0.16 0.16 0.17 0.17 0.17 0.18 0.18 0.18 0.18 0.19 0.19 0.20 0.20 0.20 0.21 0.21 0.21 0.21 0.22 0.22 0.23 0.23 0.23 0.22 0.21 0.21 0.22 0.21 0.21 0.22 0.22 0.22 0.23 0.24 0.25 0.25 0.25 0.25 0.25 0.25 0.24 0.23 0.22 0.21 0.20 0.19 0.21 0.20 0.18 0.17 0.17 0.18 0.20 0.21 0.22 0.23 0.24 0.25 0.25 0.26 0.28 0.31 0.33 0.33 0.32 0.30 0.28 0.26 0.25
0.11 0.11 0.11 0.10 0.10 0.11 0.11 0.11 0.12 0.12 0.13 0.14 0.14 0.15 0.15 0.16 0.16 0.16 0.16 0.17 0.17 0.17 0.17 0.18 0.18 0.19 0.19 0.20 0.20 0.21 0.21 0.20 0.20 0.21 0.21 0.22 0.22 0.22 0.22 0.22 0.22 0.22 0.22 0.21 0.21 0.21 0.21 0.22 0.23 0.24 0.24 0.24 0.25 0.25 0.26 0.26 0.26 0.25 0.24 0.23 0.23 0.22 0.24 0.23 0.23 0.22 0.20 0.20 0.20 0.21 0.22 0.23 0.23 0.24 0.24 0.26 0.27 0.30 0.33 0.34 0.34 0.33 0.30 0.28 0.26
0.12 0.11 0.11 0.10 0.10 0.11 0.11 0.11 0.11 0.12 0.13 0.13 0.14 0.14 0.15 0.16 0.16 0.16 0.16 0.16 0.16 0.16 0.17 0.17 0.18 0.18 0.19 0.19 0.20 0.21 0.20 0.20 0.20 0.20 0.20 0.21 0.21 0.21 0.21 0.22 0.22 0.22 0.21 0.21 0.21 0.21 0.21 0.21 0.22 0.23 0.24 0.24 0.24 0.23 0.24 0.24 0.26 0.26 0.25 0.25 0.25 0.25 0.25 0.26 0.25 0.24 0.24 0.22 0.21 0.20 0.20 0.21 0.21 0.23 0.24 0.26 0.27 0.30 0.32 0.33 0.33 0.33 0.32 0.31 0.28
0.12 0.11 0.11 0.11 0.10 0.10 0.11 0.11 0.11 0.12 0.12 0.13 0.14 0.14 0.15 0.15 0.15 0.16 0.16 0.16 0.16 0.16 0.16 0.17 0.17 0.17 0.18 0.18 0.19 0.19 0.19 0.20 0.19 0.19 0.19 0.20 0.20 0.20 0.21 0.21 0.22 0.22 0.21 0.20 0.21 0.21 0.21 0.22 0.23 0.24 0.24 0.24 0.25 0.25 0.25 0.25 0.25 0.25 0.26 0.27 0.27 0.27 0.27 0.26 0.26 0.25 0.24 0.24 0.23 0.21 0.21 0.21 0.21 0.22 0.24 0.25 0.27 0.29 0.30 0.31 0.32 0.33 0.32 0.32 0.31
0.12 0.11 0.11 0.11 0.10 0.10 0.11 0.11 0.11 0.11 0.12 0.13 0.13 0.14 0.14 0.15 0.15 0.15 0.16 0.16 0.16 0.16 0.16 0.16 0.16 0.16 0.16 0.17 0.18 0.18 0.19 0.19 0.19 0.18 0.19 0.19 0.19 0.20 0.20 0.21 0.21 0.21 0.22 0.21 0.21 0.21 0.22 0.22 0.24 0.24 0.25 0.25 0.26 0.25 0.26 0.27 0.26 0.26 0.24 0.24 0.26 0.28 0.27 0.26 0.26 0.25 0.24 0.24 0.23 0.22 0.21 0.21 0.22 0.23 0.24 0.26 0.27 0.28 0.29 0.30 0.31 0.31 0.30 0.30 0.30
0.12 0.12 0.11 0.11 0.10 0.10 0.11 0.11 0.11 0.11 0.12 0.12 0.13 0.13 0.14 0.14 0.14 0.15 0.15 0.15 0.15 0.15 0.16 0.16 0.16 0.16 0.16 0.16 0.17 0.17 0.18 0.18 0.18 0.18 0.18 0.18 0.19 0.20 0.20 0.20 0.20 0.21 0.21 0.22 0.22 0.22 0.22 0.23 0.24 0.25 0.25 0.25 0.25 0.25 0.25 0.26 0.26 0.27 0.27 0.26 0.25 0.25 0.26 0.26 0.25 0.25 0.24 0.23 0.23 0.23 0.22 0.22 0.23 0.24 0.26 0.27 0.28 0.29 0.29 0.29 0.30 0.30 0.31 0.31 0.30
0.13 0.12 0.11 0.11 0.10 0.10 0.10 0.11 0.11 0.11 0.12 0.12 0.12 0.13 0.13 0.14 0.14 0.14 0.15 0.15 0.15 0.15 0.15 0.16 0.16 0.16 0.16 0.16 0.16 0.16 0.17 0.17 0.17 0.18 0.18 0.18 0.19 0.19 0.20 0.20 0.20 0.20 0.21 0.21 0.22 0.22 0.23 0.23 0.24 0.25 0.25 0.25 0.26 0.25 0.25 0.24 0.25 0.25 0.26 0.27 0.26 0.25 0.25 0.25 0.25 0.24 0.23 0.24 0.24 0.23 0.24 0.24 0.24 0.25 0.27 0.28 0.28 0.27 0.28 0.28 0.28 0.28 0.29 0.28 0.28
0.13 0.12 0.11 0.11 0.11 0.10 0.10 0.11 0.11 0.12 0.12 0.12 0.12 0.13 0.13 0.14 0.14 0.14 0.14 0.14 0.14 0.14 0.15 0.15 0.16 0.16 0.16 0.16 0.16 0.16 0.16 0.16 0.16 0.17 0.18 0.18 0.19 0.19 0.19 0.19 0.20 0.20 0.20 0.21 0.21 0.22 0.22 0.23 0.24 0.24 0.24 0.24 0.25 0.25 0.25 0.26 0.26 0.26 0.26 0.26 0.26 0.26 0.26 0.25 0.24 0.23 0.23 0.24 0.24 0.24 0.25 0.25 0.26 0.26 0.26 0.27 0.27 0.28 0.29 0.28 0.28 0.27 0.28 0.28 0.26
0.13 0.12 0.12 0.11 0.11 0.11 0.10 0.11 0.11 0.11 0.12 0.12 0.12 0.12 0.13 0.13 0.13 0.13 0.13 0.13 0.13 0.14 0.14 0.15 0.15 0.15 0.15 0.15 0.16 0.15 0.15 0.16 0.16 0.16 0.17 0.18 0.19 0.19 0.19 0.19 0.19 0.19 0.20 0.20 0.21 0.22 0.22 0.22 0.23 0.23 0.23 0.23 0.23 0.23 0.23 0.24 0.24 0.25 0.25 0.26 0.26 0.26 0.27 0.27 0.26 0.25 0.24 0.24 0.24 0.24 0.25 0.25 0.25 0.25 0.26 0.26 0.26 0.27 0.29 0.28 0.27 0.27 0.27 0.27 0.25
0.13 0.12 0.12 0.11 0.11 0.11 0.11 0.11 0.11 0.11 0.11 0.12 0.12 0.12 0.12 0.12 0.13 0.13 0.14 0.14 0.14 0.14 0.14 0.15 0.15 0.16 0.15 0.15 0.15 0.15 0.15 0.15 0.16 0.18 0.18 0.19 0.19 0.19 0.18 0.19 0.19 0.20 0.20 0.20 0.20 0.20 0.21 0.21 0.20 0.20 0.21 0.21 0.21 0.21 0.21 0.22 0.22 0.23 0.24 0.24 0.25 0.26 0.26 0.26 0.24 0.24 0.24 0.23 0.23 0.23 0.23 0.24 0.24 0.25 0.25 0.25 0.25 0.26 0.28 0.28 0.28 0.27 0.27 0.27 0.24
0.13 0.12 0.12 0.12 0.11 0.11 0.11 0.10 0.11 0.11 0.11 0.11 0.11 0.12 0.12 0.13 0.13 0.13 0.13 0.14 0.14 0.15 0.15 0.15 0.15 0.15 0.15 0.16 0.16 0.15 0.15 0.16 0.17 0.18 0.18 0.19 0.19 0.19 0.19 0.20 0.20 0.20 0.20 0.19 0.19 0.19 0.19 0.19 0.19 0.19 0.19 0.19 0.19 0.20 0.20 0.20 0.21 0.21 0.22 0.23 0.23 0.24 0.24 0.25 0.25 0.25 0.25 0.23 0.22 0.23 0.23 0.23 0.23 0.24 0.24 0.24 0.24 0.26 0.27 0.27 0.27 0.28 0.26 0.25 0.24
0.13 0.13 0.12 0.12 0.11 0.11 0.11 0.10 0.10 0.10 0.11 0.11 0.11 0.11 0.11 0.12 0.13 0.13 0.13 0.13 0.14 0.14 0.14 0.15 0.15 0.16 0.16 0.15 0.16 0.16 0.16 0.17 0.17 0.17 0.18 0.18 0.19 0.19 0.19 0.19 0.19 0.19 0.19 0.18 0.18 0.18 0.18 0.18 0.18 0.18 0.18 0.18 0.18 0.18 0.19 0.19 0.20 0.20 0.20 0.21 0.22 0.22 0.22 0.23 0.23 0.24 0.24 0.25 0.24 0.24 0.24 0.24 0.23 0.23 0.23 0.24 0.24 0.25 0.26 0.27 0.27 0.27 0.25 0.25 0.24
0.13 0.12 0.12 0.12 0.12 0.11 0.11 0.10 0.10 0.10 0.10 0.10 0.10 0.10 0.11 0.11 0.11 0.12 0.13 0.13 0.13 0.13 0.14 0.14 0.15 0.15 0.16 0.16 0.16 0.16 0.16 0.16 0.17 0.17 0.18 0.18 0.19 0.19 0.19 0.19 0.19 0.19 0.19 0.18 0.17 0.17 0.17 0.17 0.17 0.17 0.17 0.17 0.17 0.18 0.18 0.18 0.19 0.19 0.19 0.20 0.20 0.21 0.21 0.22 0.23 0.23 0.24 0.24 0.24 0.24 0.25 0.25 0.25 0.25 0.25 0.25 0.25 0.25 0.25 0.25 0.26 0.25 0.25 0.25 0.25
0.13 0.13 0.12 0.12 0.12 0.11 0.11 0.11 0.10 0.10 0.10 0.10 0.10 0.10 0.10 0.10 0.10 0.11 0.11 0.12 0.12 0.13 0.13 0.14 0.14 0.15 0.15 0.16 0.16 0.16 0.16 0.16 0.17 0.17 0.18 0.18 0.18 0.18 0.18 0.18 0.18 0.18 0.17 0.17 0.16 0.16 0.16 0.17 0.17 0.17 0.17 0.16 0.17 0.17 0.18 0.18 0.18 0.19 0.19 0.19 0.19 0.20 0.21 0.22 0.23 0.23 0.23 0.24 0.24 0.24 0.25 0.26 0.26 0.26 0.26 0.26 0.26 0.25 0.26 0.26 0.26 0.26 0.25 0.25 0.24
0.13 0.13 0.12 0.12 0.12 0.11 0.11 0.11 0.10 0.10 0.10 0.10 0.10 0.10 0.10 0.10 0.10 0.10 0.10 0.11 0.11 0.11 0.12 0.13 0.13 0.14 0.14 0.15 0.15 0.15 0.16 0.16 0.16 0.17 0.17 0.18 0.18 0.18 0.17 0.17 0.17 0.17 0.17 0.16 0.16 0.16 0.16 0.16 0.16 0.16 0.16 0.16 0.16 0.17 0.17 0.17 0.18 0.18 0.18 0.19 0.19 0.20 0.21 0.22 0.21 0.22 0.22 0.23 0.23 0.23 0.24 0.25 0.26 0.25 0.25 0.26 0.26 0.26 0.25 0.25 0.25 0.24 0.24 0.24 0.24
0.13 0.13 0.13 0.12 0.12 0.12 0.11 0.11 0.11 0.10 0.10 0.10 0.10 0.10 0.10 0.10 0.10 0.10 0.10 0.10 0.10 0.10 0.11 0.11 0.12 0.13 0.13 0.14 0.14 0.15 0.15 0.16 0.16 0.16 0.17 0.17 0.17 0.17 0.17 0.16 0.16 0.16 0.16 0.16 0.15 0.15 0.15 0.15 0.15 0.15 0.15 0.16 0.16 0.16 0.16 0.17 0.17 0.17 0.18 0.18 0.19 0.19 0.20 0.20 0.21 0.21 0.21 0.22 0.22 0.22 0.23 0.24 0.24 0.25 0.25 0.25 0.25 0.24 0.24 0.24 0.24 0.25 0.24 0.24 0.24
0.14 0.13 0.13 0.12 0.12 0.12 0.11 0.11 0.11 0.10 0.10 0.10 0.10 0.10 0.10 0.10 0.10 0.10 0.10 0.10 0.10 0.10 0.10 0.11 0.11 0.12 0.13 0.13 0.14 0.14 0.15 0.15 0.15 0.16 0.16 0.16 0.16 0.16 0.16 0.15 0.15 0.15 0.15 0.15 0.15 0.15 0.15 0.15 0.15 0.15 0.15 0.15 0.15 0.16 0.16 0.16 0.17 0.17 0.17 0.18 0.18 0.19 0.19 0.19 0.20 0.20 0.21 0.21 0.21 0.22 0.23 0.23 0.24 0.24 0.25 0.25 0.25 0.24 0.24 0.24 0.24 0.25 0.25 0.24 0.24
0.14 0.13 0.13 0.13 0.12 0.12 0.11 0.11 0.11 0.10 0.10 0.10 0.10 0.09 0.09 0.09 0.09 0.09 0.09 0.09 0.10 0.10 0.10 0.10 0.11 0.11 0.12 0.13 0.13 0.14 0.14 0.14 0.14 0.14 0.15 0.15 0.15 0.15 0.15 0.15 0.15 0.14 0.14 0.14 0.14 0.14 0.14 0.15 0.15 0.15 0.15 0.14 0.15 0.15 0.16 0.16 0.16 0.17 0.17 0.17 0.18 0.18 0.19 0.19 0.19 0.20 0.20 0.20 0.20 0.21 0.21 0.21 0.22 0.23 0.24 0.24 0.24 0.24 0.25 0.25 0.24 0.24 0.24 0.24 0.24
0.14 0.13 0.13 0.13 0.12 0.12 0.11 0.11 0.11 0.10 0.10 0.10 0.10 0.09 0.09 0.09 0.09 0.09 0.09 0.09 0.09 0.10 0.10 0.10 0.10 0.10 0.10 0.11 0.13 0.13 0.13 0.13 0.13 0.13 0.14 0.14 0.14 0.14 0.14 0.14 0.14 0.14 0.14 0.14 0.14 0.14 0.14 0.14 0.14 0.14 0.14 0.15 0.15 0.15 0.15 0.16 0.16 0.16 0.17 0.17 0.17 0.18 0.18 0.19 0.19 0.19 0.19 0.19 0.20 0.20 0.21 0.21 0.22 0.22 0.23 0.23 0.23 0.24 0.24 0.24 0.24 0.24 0.24 0.23 0.23
0.14 0.14 0.13 0.13 0.12 0.12 0.12 0.11 0.11 0.10 0.10 0.10 0.09 0.09 0.09 0.09 0.09 0.09 0.09 0.09 0.09 0.09 0.09 0.10 0.10 0.10 0.10 0.11 0.12 0.12 0.12 0.12 0.12 0.12 0.12 0.13 0.13 0.13 0.14 0.14 0.14 0.14 0.14 0.14 0.14 0.14 0.14 0.14 0.14 0.14 0.14 0.15 0.15 0.15 0.15 0.16 0.16 0.16 0.16 0.17 0.17 0.17 0.18 0.18 0.18 0.19 0.19 0.19 0.19 0.20 0.20 0.21 0.21 0.22 0.22 0.23 0.23 0.24 0.24 0.24 0.24 0.24 0.23 0.22 0.23
0.14 0.14 0.13 0.13 0.12 0.12 0.12 0.11 0.11 0.10 0.10 0.10 0.09 0.09 0.09 0.09 0.08 0.08 0.08 0.08 0.08 0.09 0.09 0.09 0.09 0.10 0.10 0.11 0.11 0.11 0.11 0.11 0.11 0.12 0.12 0.12 0.12 0.13 0.13 0.13 0.13 0.13 0.14 0.14 0.14 0.14 0.14 0.14 0.14 0.14 0.14 0.14 0.15 0.15 0.15 0.15 0.16 0.16 0.16 0.16 0.16 0.16 0.17 0.17 0.18 0.18 0.18 0.19 0.19 0.19 0.20 0.20 0.21 0.21 0.22 0.22 0.22 0.23 0.23 0.23 0.24 0.24 0.24 0.23 0.23
0.14 0.14 0.13 0.13 0.12 0.12 0.12 0.11 0.11 0.10 0.10 0.10 0.09 0.09 0.09 0.08 0.09 0.09 0.08 0.08 0.08 0.08 0.08 0.09 0.09 0.09 0.10 0.10 0.11 0.11 0.11 0.11 0.11 0.11 0.12 0.12 0.12 0.12 0.12 0.13 0.13 0.13 0.13 0.13 0.14 0.14 0.14 0.14 0.14 0.14 0.14 0.14 0.15 0.15 0.15 0.15 0.16 0.16 0.16 0.16 0.16 0.16 0.16 0.17 0.17 0.17 0.18 0.18 0.19 0.19 0.19 0.20 0.20 0.20 0.20 0.21 0.22 0.22 0.23 0.23 0.23 0.23 0.23 0.23 0.23
0.14 0.14 0.13 0.13 0.13 0.12 0.12 0.11 0.11 0.10 0.10 0.10 0.09 0.09 0.09 0.08 0.08 0.08 0.08 0.08 0.08 0.08 0.08 0.08 0.09 0.09 0.09 0.10 0.10 0.10 0.10 0.10 0.11 0.11 0.11 0.11 0.12 0.12 0.12 0.12 0.13 0.13 0.13 0.13 0.13 0.13 0.14 0.14 0.14 0.14 0.14 0.14 0.14 0.15 0.15 0.15 0.15 0.15 0.15 0.16 0.16 0.16 0.16 0.16 0.17 0.17 0.17 0.17 0.18 0.18 0.19 0.19 0.20 0.20 0.20 0.21 0.21 0.21 0.22 0.22 0.22 0.22 0.22 0.22 0.22
0.15 0.14 0.14 0.13 0.13 0.12 0.12 0.11 0.11 0.10 0.10 0.10 0.09 0.09 0.09 0.09 0.08 0.08 0.08 0.08 0.08 0.08 0.08 0.08 0.08 0.08 0.09 0.09 0.09 0.09 0.09 0.09 0.10 0.10 0.10 0.11 0.11 0.11 0.12 0.12 0.12 0.13 0.13 0.13 0.13 0.13 0.13 0.14 0.14 0.14 0.14 0.14 0.14 0.14 0.14 0.14 0.15 0.15 0.15 0.15 0.15 0.16 0.16 0.16 0.16 0.16 0.17 0.17 0.18 0.18 0.18 0.19 0.19 0.19 0.20 0.20 0.20 0.20 0.21 0.21 0.21 0.21 0.21 0.21 0.21
0.15 0.14 0.14 0.13 0.13 0.12 0.12 0.11 0.11 0.10 0.10 0.10 0.09 0.09 0.09 0.08 0.08 0.08 0.08 0.08 0.08 0.08 0.08 0.08 0.08 0.08 0.08 0.08 0.09 0.09 0.09 0.09 0.09 0.09 0.09 0.10 0.10 0.10 0.11 0.11 0.12 0.12 0.12 0.13 0.13 0.13 0.13 0.13 0.14 0.14 0.14 0.14 0.14 0.14 0.14 0.15 0.15 0.15 0.15 0.15 0.15 0.15 0.15 0.16 0.16 0.16 0.16 0.17 0.17 0.18 0.18 0.18 0.19 0.19 0.19 0.19 0.19 0.19 0.20 0.20 0.20 0.20 0.20 0.20 0.20
0.15 0.14 0.14 0.13 0.13 0.12 0.12 0.12 0.11 0.11 0.10 0.10 0.09 0.09 0.09 0.08 0.08 0.08 0.08 0.08 0.08 0.08 0.08 0.08 0.08 0.08 0.08 0.08 0.08 0.08 0.08 0.08 0.08 0.09 0.09 0.09 0.09 0.09 0.10 0.10 0.11 0.11 0.12 0.12 0.12 0.13 0.13 0.13 0.13 0.13 0.14 0.14 0.14 0.14 0.14 0.14 0.14 0.15 0.15 0.15 0.14 0.15 0.15 0.15 0.15 0.16 0.16 0.16 0.17 0.17 0.17 0.18 0.18 0.18 0.18 0.19 0.19 0.19 0.19 0.19 0.19 0.19 0.19 0.19 0.19
0.15 0.14 0.14 0.13 0.13 0.12 0.12 0.11 0.11 0.11 0.10 0.10 0.09 0.09 0.08 0.08 0.08 0.08 0.08 0.08 0.08 0.07 0.07 0.07 0.07 0.07 0.08 0.08 0.08 0.08 0.08 0.08 0.08 0.08 0.09 0.09 0.09 0.09 0.09 0.10 0.10 0.10 0.11 0.11 0.12 0.12 0.12 0.12 0.13 0.13 0.13 0.13 0.14 0.14 0.14 0.14 0.14 0.14 0.14 0.15 0.15 0.15 0.15 0.15 0.15 0.16 0.16 0.16 0.17 0.17 0.17 0.17 0.18 0.18 0.18 0.18 0.18 0.18 0.18 0.18 0.18 0.18 0.18 0.18 0.18
0.15 0.14 0.14 0.13 0.13 0.12 0.12 0.11 0.11 0.10 0.10 0.10 0.09 0.09 0.08 0.08 0.08 0.08 0.08 0.08 0.08 0.07 0.07 0.07 0.07 0.07 0.07 0.07 0.07 0.08 0.08 0.08 0.08 0.08 0.08 0.08 0.09 0.09 0.09 0.09 0.10 0.10 0.10 0.10 0.11 0.11 0.11 0.12 0.12 0.12 0.13 0.13 0.13 0.13 0.14 0.14 0.14 0.14 0.14 0.14 0.14 0.15 0.15 0.15 0.15 0.15 0.15 0.16 0.16 0.17 0.17 0.17 0.17 0.17 0.17 0.18 0.18 0.18 0.18 0.18 0.18 0.18 0.18 0.17 0.17
0.15 0.14 0.14 0.13 0.13 0.12 0.12 0.11 0.11 0.10 0.10 0.09 0.09 0.09 0.08 0.08 0.08 0.08 0.08 0.07 0.07 0.07 0.07 0.07 0.07 0.07 0.07 0.07 0.07 0.07 0.07 0.07 0.08 0.08 0.08 0.08 0.08 0.08 0.09 0.09 0.09 0.09 0.10 0.10 0.10 0.10 0.10 0.11 0.11 0.12 0.12 0.12 0.13 0.13 0.13 0.13 0.14 0.14 0.14 0.14 0.14 0.14 0.15 0.15 0.15 0.15 0.15 0.15 0.15 0.16 0.16 0.16 0.17 0.17 0.17 0.17 0.17 0.17 0.17 0.17 0.17 0.17 0.17 0.17 0.17
0.15 0.14 0.14 0.13 0.13 0.12 0.12 0.11 0.11 0.10 0.10 0.09 0.09 0.09 0.08 0.08 0.08 0.08 0.08 0.07 0.07 0.07 0.07 0.07 0.07 0.06 0.06 0.06 0.06 0.06 0.06 0.07 0.07 0.07 0.07 0.08 0.08 0.08 0.08 0.08 0.08 0.09 0.09 0.09 0.10 0.10 0.10 0.10 0.10 0.11 0.11 0.11 0.12 0.12 0.13 0.13 0.13 0.13 0.13 0.14 0.14 0.14 0.14 0.14 0.14 0.14 0.14 0.14 0.14 0.14 0.15 0.15 0.15 0.16 0.16 0.16 0.16 0.17 0.16 0.17 0.17 0.17 0.17 0.16 0.16
0.15 0.14 0.14 0.13 0.13 0.12 0.12 0.11 0.11 0.10 0.10 0.09 0.09 0.09 0.08 0.08 0.08 0.08 0.07 0.07 0.07 0.07 0.07 0.07 0.07 0.06 0.06 0.06 0.06 0.06 0.06 0.06 0.06 0.06 0.06 0.07 0.07 0.07 0.08 0.08 0.08 0.08 0.08 0.08 0.09 0.09 0.10 0.10 0.10 0.10 0.10 0.11 0.11 0.11 0.12 0.12 0.13 0.13 0.13 0.13 0.13 0.14 0.14 0.14 0.14 0.14 0.14 0.14 0.14 0.14 0.14 0.14 0.14 0.14 0.14 0.15 0.15 0.15 0.15 0.15 0.16 0.16 0.16 0.16 0.16
0.15 0.14 0.14 0.13 0.13 0.12 0.12 0.11 0.11 0.10 0.10 0.09 0.09 0.09 0.08 0.08 0.08 0.07 0.07 0.07 0.07 0.07 0.07 0.07 0.07 0.06 0.06 0.06 0.06 0.06 0.06 0.06 0.06 0.06 0.06 0.06 0.06 0.06 0.07 0.07 0.07 0.07 0.08 0.08 0.08 0.09 0.09 0.09 0.10 0.10 0.10 0.10 0.10 0.11 0.11 0.11 0.12 0.12 0.13 0.13 0.13 0.13 0.13 0.14 0.14 0.14 0.14 0.14 0.14 0.13 0.13 0.13 0.13 0.13 0.13 0.13 0.13 0.14 0.14 0.14 0.14 0.14 0.14 0.15 0.15
Wind_Speed
29 28 28 27 26 25 25 24 23 22 22 22 22 22 22 22 22 23 23 24 25 25 25 25 25 24 24 23 22 21 19 17 17 18 20 23 25 27 29 30 32 32 34 35 37 39 41 43 46 48 50 53 57 60 62 63 64 64 64 64 65 64 63 63 62 63 62 62 62 62 61 61 60 59 59 58 58 58 58 58 57 57 57 57 58
29 28 28 27 27 26 25 24 23 23 22 22 22 23 23 23 23 23 23 24 25 25 25 24 24 23 23 22 21 20 18 16 15 15 17 19 21 23 25 27 29 30 31 33 34 36 38 40 43 45 47 50 53 56 59 62 63 65 65 65 65 65 64 64 63 63 63 62 62 63 62 62 62 61 60 60 60 59 59 59 59 59 59 58 58
29 28 28 28 27 27 26 25 24 23 23 23 23 23 23 23 23 23 23 24 24 24 24 24 23 23 22 21 20 19 17 16 14 14 15 16 18 20 22 24 26 28 30 31 33 34 36 38 40 42 44 47 50 52 55 58 61 64 65 65 65 65 64 64 64 63 63 62 62 63 62 63 63 63 62 62 61 61 60 60 60 60 60 59 59
29 29 28 28 28 27 26 25 24 24 24 23 23 23 24 24 24 23 23 24 24 24 24 24 23 22 21 20 19 18 17 16 14 13 13 14 16 18 20 22 24 25 27 29 31 32 33 35 37 39 41 43 46 48 51 53 56 60 63 64 64 64 64 64 64 64 63 63 63 63 62 62 63 63 63 62 62 62 61 61 60 60 60 60 60
29 29 29 28 28 27 27 26 25 25 24 24 24 24 24 24 24 23 23 23 23 23 23 23 22 22 21 20 19 18 17 16 15 14 13 14 15 17 18 20 21 23 24 26 28 29 31 32 34 36 38 40 42 44 47 48 50 54 58 61 62 63 64 64 64 64 64 64 63 63 62 62 62 63 62 62 62 62 62 61 61 61 60 60 60
29 29 29 28 28 27 27 26 26 25 25 25 24 24 24 24 24 24 23 23 23 23 22 22 22 22 21 20 19 18 17 16 15 14 14 14 15 16 18 19 21 22 23 24 25 27 28 30 31 33 34 36 38 41 43 45 46 48 51 55 58 60 62 63 63 63 63 63 63 63 62 62 62 62 62 62 62 62 62 62 61 61 61 60 60
29 29 29 28 28 27 27 27 26 26 25 25 24 24 24 23 24 24 23 23 23 22 22 21 21 21 21 20 19 18 17 17 16 15 14 14 14 16 17 18 20 21 22 23 23 24 25 26 28 30 31 33 34 36 39 41 43 45 46 48 51 55 57 58 59 60 61 61 62 62 62 62 62 62 62 61 62 62 62 62 62 61 61 60 60
30 29 29 28 28 28 27 27 27 26 26 25 25 24 24 24 23 23 23 23 22 22 21 21 21 21 21 20 19 18 17 17 16 16 15 14 14 15 16 17 18 20 21 22 22 23 23 24 25 26 28 30 32 33 35 37 40 42 44 45 46 49 52 54 56 57 59 60 60 61 60 61 61 62 62 61 62 62 62 62 62 61 61 61 60
30 29 29 28 28 28 28 27 27 27 26 25 25 25 24 24 23 23 23 22 22 21 21 21 21 21 20 20 19 19 17 17 17 16 15 15 14 14 15 16 17 18 19 20 21 22 23 23 24 25 26 28 30 32 33 35 36 38 41 43 44 46 48 51 54 55 57 58 59 59 59 60 60 60 60 61 61 61 61 61 61 60 60 60 60
30 29 29 29 28 28 28 28 27 27 26 26 26 25 25 24 23 23 22 22 22 21 21 21 21 21 20 20 19 19 18 17 17 16 16 16 15 14 15 15 16 16 17 18 19 21 22 22 23 24 25 26 28 29 31 32 34 35 37 39 42 44 46 48 50 52 54 55 56 57 57 58 59 59 59 59 59 60 60 60 60 59 58 58 59
30 29 29 29 29 29 28 28 27 27 27 26 26 25 25 24 24 23 23 22 21 21 20 20 20 20 20 20 19 19 18 17 17 17 16 16 16 15 15 15 16 16 16 17 18 19 20 20 21 21 22 23 25 27 28 30 31 33 34 36 38 40 42 45 47 49 50 52 53 54 55 56 57 57 57 57 57 58 58 58 59 58 57 56 57
30 29 29 29 29 29 28 28 28 27 27 27 26 26 25 24 24 23 23 22 21 20 20 20 20 20 20 20 19 19 18 18 18 17 17 16 16 15 15 16 16 16 16 17 17 18 18 19 20 20 21 21 22 23 25 28 30 31 32 34 35 36 37 40 42 44 46 47 49 50 51 52 53 54 55 55 55 56 57 57 57 57 56 56 56
30 30 29 29 29 28 28 28 28 28 27 27 26 26 25 25 24 23 23 22 21 20 20 20 20 20 20 19 19 18 18 18 19 18 17 17 16 15 15 15 16 16 17 17 16 17 17 18 19 19 20 21 21 21 22 24 27 30 31 32 32 33 34 36 38 39 41 43 44 46 48 48 48 49 51 52 53 54 55 56 56 56 56 56 56
31 30 29 29 28 28 28 28 28 28 28 27 27 26 25 25 24 23 23 22 22 21 20 20 19 19 19 19 19 18 18 19 19 18 18 18 17 15 14 14 15 16 16 16 16 16 16 16 17 18 19 20 20 21 21 22 23 26 28 30 30 31 32 34 35 36 37 39 40 42 44 45 45 45 46 48 50 52 53 54 54 55 55 55 56
31 30 29 29 29 28 28 28 28 28 28 27 27 26 25 25 24 24 23 22 22 21 20 20 19 19 19 18 18 18 18 19 19 19 19 19 18 16 14 14 14 15 16 16 16 16 16 16 16 17 18 18 19 20 21 21 21 23 25 28 29 31 32 33 33 34 35 36 37 38 40 42 42 42 43 44 45 48 49 50 51 53 54 54 54
31 30 30 29 29 28 28 28 28 28 28 27 26 26 25 25 24 23 23 22 22 21 20 20 19 19 18 18 18 18 18 19 19 19 19 19 17 15 14 14 13 13 14 15 15 16 16 16 16 16 17 17 18 19 20 20 20 21 22 25 27 29 31 32 34 34 34 35 36 36 38 39 40 40 41 41 42 43 44 46 47 49 50 51 51
31 30 30 29 29 28 28 28 28 28 27 27 26 26 25 25 24 23 23 22 22 21 20 20 20 19 19 18 18 18 18 18 19 19 18 17 16 14 13 13 13 13 13 14 14 15 15 16 16 16 16 17 18 19 20 20 20 20 21 22 24 26 28 29 31 33 34 35 35 36 37 37 38 38 39 39 40 40 41 43 43 45 46 46 47
30 30 30 30 29 29 28 28 28 27 27 27 26 26 25 25 24 23 22 22 21 21 21 20 20 20 19 19 18 19 19 19 19 19 18 17 15 14 13 13 13 13 13 13 13 14 15 17 17 17 17 17 18 19 20 20 20 20 21 21 23 24 25 26 28 29 31 32 34 35 35 36 36 36 36 37 38 38 40 41 41 42 43 43 43
30 30 30 30 29 29 28 28 27 27 26 26 26 26 25 24 23 23 22 21 21 21 21 20 20 20 19 19 19 19 19 19 19 19 19 18 16 14 13 13 12 13 14 13 13 13 14 16 17 18 18 18 18 19 19 20 21 21 21 21 22 22 23 25 26 27 28 30 31 32 33 34 34 34 35 35 36 36 38 39 39 40 40 40 41
31 30 30 30 29 29 28 28 27 27 26 26 26 26 25 24 23 22 22 21 21 21 20 20 20 20 19 19 19 19 19 19 19 19 19 18 17 15 14 13 13 13 14 13 12 12 13 14 15 17 18 19 19 19 19 20 20 21 21 21 22 22 22 23 25 27 28 29 30 30 31 32 32 33 33 34 34 35 35 37 38 38 39 39 39
31 30 30 30 29 28 28 28 27 27 26 25 25 25 24 24 23 22 21 21 21 21 20 20 19 19 19 19 19 19 19 19 19 20 19 19 18 17 15 14 14 14 14 13 13 13 13 13 13 15 16 17 19 19 19 20 20 21 22 22 23 23 22 23 24 26 27 29 30 30 31 31 32 33 33 33 33 33 33 35 36 37 37 37 37
30 30 30 30 29 28 28 27 27 26 25 24 24 24 24 23 22 21 21 21 20 20 20 19 19 19 19 19 19 19 19 20 19 19 19 19 19 18 16 16 15 15 15 14 14 14 14 14 14 15 16 16 17 18 19 20 20 20 22 23 24 24 24 23 24 25 26 28 30 31 31 31 32 32 33 33 33 32 32 33 34 35 36 36 36
30 30 30 30 29 28 28 27 27 26 25 24 23 23 23 23 22 21 21 20 20 20 19 19 19 19 19 19 19 19 19 20 20 20 20 20 19 19 18 17 16 16 15 15 14 14 14 14 14 15 15 16 17 18 19 19 20 20 21 22 24 25 25 25 25 25 26 27 28 30 31 31 31 31 32 33 32 31 31 31 32 33 34 34 34
30 30 30 29 29 28 28 27 26 25 25 24 23 23 22 22 22 21 20 20 20 19 19 19 19 18 18 18 19 19 20 20 20 20 20 20 20 19 18 18 17 16 16 15 15 14 14 14 14 15 15 16 17 17 18 19 19 20 21 21 22 22 24 25 26 26 26 26 27 28 30 31 31 31 31 32 31 31 31 31 31 32 32 32 32
29 29 29 29 29 28 27 26 26 25 24 23 23 22 22 22 22 21 21 20 19 19 19 19 19 19 18 18 19 20 20 20 20 20 20 20 19 19 19 18 18 17 16 16 15 15 15 15 15 15 15 16 16 16 17 18 19 20 21 22 21 21 21 23 25 25 25 25 26 27 28 30 30 30 30 31 31 31 31 30 31 31 31 30 30
29 29 29 29 28 28 27 26 25 24 23 23 22 22 21 21 21 21 21 20 20 20 20 19 19 19 19 18 19 20 21 20 19 19 19 19 19 19 19 18 18 17 16 16 16 16 15 15 15 14 14 14 14 14 15 17 18 20 21 21 21 21 20 20 22 23 24 24 25 26 27 28 29 29 29 30 31 31 31 30 30 30 30 30 30
28 28 28 28 28 27 26 26 25 24 23 23 22 22 21 21 21 21 20 20 20 20 20 20 20 19 18 18 19 20 20 20 19 19 19 19 18 18 18 18 17 16 16 15 15 15 15 15 14 13 13 13 13 13 13 14 15 17 18 20 20 21 21 20 20 21 23 23 24 25 26 27 27 28 28 29 30 30 30 30 30 30 30 30 29
27 27 27 27 27 26 26 25 24 24 23 23 22 22 21 21 21 20 20 20 21 21 21 20 19 19 18 18 19 20 20 20 19 19 19 19 18 18 17 17 16 16 15 15 15 14 14 14 13 12 12 12 12 12 13 13 13 13 15 17 19 20 20 20 21 21 21 22 23 24 24 26 26 27 27 28 29 30 30 30 30 30 30 30 29
26 27 26 26 26 25 25 24 24 23 23 23 22 22 21 21 21 20 20 20 21 21 21 20 19 18 18 18 19 19 19 19 19 19 19 19 18 17 17 16 15 14 14 14 14 13 12 12 12 12 12 12 12 12 12 12 12 12 12 14 16 17 18 19 20 20 20 20 21 22 24 25 26 27 27 28 29 29 30 30 31 31 30 30 29
26 26 25 25 25 24 24 24 23 23 23 23 23 22 21 21 20 20 20 20 21 21 21 20 19 19 18 18 18 19 19 19 19 19 18 18 18 17 16 14 13 12 12 12 12 11 11 11 11 11 11 11 11 11 12 11 11 11 11 11 12 14 15 16 18 19 19 19 20 21 22 24 25 26 27 28 28 29 30 30 31 31 31 31 30
25 25 24 24 24 24 23 23 23 22 22 22 23 22 22 21 20 20 20 20 21 21 21 20 20 19 18 18 18 18 19 19 18 18 17 17 17 16 14 13 12 12 11 10 10 9 9 9 10 10 10 10 11 11 11 11 10 10 10 10 10 11 12 13 14 16 17 18 19 20 22 23 24 25 26 27 27 28 29 30 31 31 32 32 32
24 24 23 23 24 23 23 22 22 22 22 22 22 22 22 22 20 20 20 20 21 21 20 20 20 19 18 18 18 18 18 18 17 16 16 16 15 14 12 12 11 11 10 9 9 9 9 9 9 9 9 9 10 10 10 10 10 10 10 10 10 10 11 12 13 14 15 16 17 19 20 22 23 24 25 26 27 28 29 29 30 31 32 32 32
23 23 23 23 23 23 22 22 22 22 21 21 21 21 21 21 21 21 20 20 20 20 20 21 21 19 19 18 18 18 18 18 16 15 15 14 13 12 11 11 10 9 8 8 8 8 8 8 8 9 9 9 9 9 10 10 10 10 10 10 10 10 10 11 13 14 15 15 16 17 18 20 22 23 24 25 26 27 28 29 30 30 31 32 32
23 22 22 22 22 22 22 21 21 21 21 21 20 20 20 20 20 20 21 20 20 20 20 21 21 20 19 19 19 18 18 17 16 15 14 13 12 11 10 10 9 9 8 8 8 8 8 8 8 9 9 9 10 10 9 10 10 10 10 10 11 11 11 11 11 13 14 15 16 16 17 18 19 21 23 24 25 26 27 28 29 29 30 30 31
22 22 22 22 22 22 21 21 21 21 20 20 20 19 19 19 19 19 20 20 20 20 20 20 21 20 19 19 19 18 18 16 15 14 13 12 11 10 10 10 9 9 8 8 8 8 8 8 9 9 10 10 10 10 10 10 10 10 11 11 11 11 11 11 11 12 13 14 15 16 17 17 18 19 21 23 24 25 26 27 28 28 28 29 29
21 21 21 21 21 21 21 21 20 20 20 19 19 19 19 19 19 18 19 19 19 19 19 20 20 19 19 19 18 18 18 17 15 14 13 12 11 10 9 9 10 9 9 9 9 9 9 9 9 9 10 11 11 11 11 11 11 11 11 11 11 12 11 12 12 12 13 13 14 15 16 17 18 18 20 21 22 23 24 25 26 27 28 28 28
21 20 21 20 20 21 21 20 20 19 19 19 19 19 19 18 18 18 18 18 18 18 19 19 19 19 18 18 18 18 18 17 16 14 13 12 11 10 9 9 9 9 9 9 9 9 9 10 10 10 10 11 11 11 11 11 11 11 11 11 11 12 12 12 12 12 13 13 14 15 16 17 18 18 19 19 20 21 22 23 24 25 26 27 27
20 20 20 20 20 20 20 20 19 19 19 19 18 18 18 18 17 17 17 17 18 18 18 18 18 19 19 18 18 18 18 17 16 15 13 12 11 10 10 9 9 9 9 9 9 9 10 10 11 11 11 11 11 12 12 12 12 12 12 11 11 12 12 12 12 13 13 13 14 14 15 16 17 18 18 19 19 20 20 20 21 23 24 25 26
20 20 20 20 20 20 20 19 19 18 18 18 18 17 18 17 17 17 17 17 17 17 17 18 18 18 18 18 18 18 18 17 16 16 15 14 13 12 11 10 10 9 10 10 10 10 10 11 11 11 11 11 12 12 12 12 12 12 12 12 12 12 12 12 12 13 13 13 13 13 14 15 17 17 18 18 19 20 20 20 20 20 21 22 23
19 19 19 19 19 19 19 18 18 18 18 17 17 17 17 17 17 17 16 16 16 16 16 17 17 17 17 17 17 17 17 17 16 16 15 14 13 13 12 11 11 10 10 10 10 10 11 11 11 11 11 12 12 12 12 12 12 12 12 12 12 12 12 12 12 13 13 13 13 13 13 14 15 17 17 18 18 19 20 20 20 19 19 20 21
19 19 19 19 19 19 18 18 17 17 17 17 17 17 17 17 17 16 16 16 16 16 16 16 16 16 17 17 17 17 16 16 16 15 15 14 14 13 13 12 12 11 11 11 11 11 11 11 11 11 11 12 12 12 12 12 12 12 12 12 12 12 12 13 13 13 13 13 13 13 13 13 14 15 17 18 18 18 19 20 20 20 19 20 20
19 19 19 19 19 18 18 17 17 17 16 16 16 16 16 16 16 16 16 15 15 15 15 15 16 16 16 16 17 17 16 16 16 15 15 14 14 13 13 13 12 12 12 11 11 11 11 11 11 11 11 12 12 12 12 12 12 12 12 12 12 12 12 12 13 13 13 13 13 14 14 13 13 14 15 17 18 18 19 20 20 20 20 20 21
19 19 19 19 19 18 18 17 16 16 16 16 16 16 16 16 16 16 16 15 15 15 15 15 15 15 15 16 16 16 16 16 16 16 15 15 14 13 13 13 12 12 12 12 12 12 12 12 12 12 12 12 12 12 12 12 12 12 12 12 12 12 12 12 12 13 13 13 13 14 14 14 14 13 14 15 16 18 19 20 20 20 20 20 21
20 20 19 19 18 18 17 17 16 16 16 15 15 15 16 16 16 16 15 15 15 15 15 15 15 15 15 15 16 16 16 16 16 16 16 15 15 14 14 13 13 13 12 12 12 12 12 12 12 12 12 12 12 12 12 12 12 12 12 12 12 12 12 12 12 12 12 13 13 13 13 14 14 14 14 14 14 16 17 18 19 19 20 20 20
20 20 19 19 18 18 17 17 16 16 15 15 15 15 15 15 15 15 15 15 15 15 15 15 15 15 15 15 15 15 16 16 16 16 16 16 16 15 14 14 13 13 13 13 13 13 13 12 13 13 13 13 13 13 13 12 12 12 12 12 12 12 12 12 11 11 11 12 12 12 12 13 13 14 14 14 14 15 15 16 17 17 18 19 19
20 20 19 19 18 18 17 16 16 15 15 15 15 15 15 15 15 15 15 15 15 15 15 15 15 15 15 15 15 15 16 16 16 16 16 16 16 16 15 15 14 14 14 14 14 14 13 13 13 13 13 13 13 13 13 13 13 12 12 12 12 12 12 12 12 11 11 11 11 11 11 12 12 13 14 14 14 15 15 15 16 16 16 17 17
20 19 19 19 18 17 17 16 16 15 15 15 15 15 15 15 15 15 15 15 15 15 15 15 15 15 15 15 15 15 16 16 16 16 16 16 16 16 16 16 15 14 14 14 14 14 14 14 14 13 13 14 14 14 14 14 13 13 13 13 12 12 12 12 12 11 11 11 10 10 10 10 11 12 13 13 14 14 15 15 15 15 16 16 16
20 19 19 18 18 17 17 16 16 15 15 15 15 15 15 15 15 15 15 15 15 15 15 15 15 15 15 15 15 16 16 16 16 16 16 17 17 17 17 16 16 15 15 15 15 15 15 15 15 14 14 14 14 14 14 14 14 14 14 13 13 13 13 13 12 12 12 11 11 10 10 10 10 10 11 12 13 13 14 14 15 15 15 15 15
20 19 19 18 18 17 17 16 16 15 15 15 15 15 15 15 15 15 15 15 15 15 15 15 15 15 15 15 16 16 16 16 16 17 17 17 17 17 17 17 17 16 16 15 15 15 15 15 15 15 15 15 15 15 15 15 15 15 15 15 14 14 14 14 13 13 13 12 12 11 11 11 10 10 10 11 11 12 13 13 14 14 14 14 14
20 19 19 18 18 17 17 16 16 16 15 15 15 15 15 15 15 15 15 15 15 15 15 15 15 15 15 16 16 16 16 16 17 17 17 17 17 17 17 17 17 17 17 16 16 16 15 15 16 16 16 16 16 16 16 16 16 16 16 16 16 15 15 15 15 14 14 13 13 12 12 12 11 11 11 11 11 11 12 12 13 13 13 14 14
20 19 18 18 18 17 17 17 16 16 16 16 16 16 16 15 15 15 15 15 15 15 15 16 16 16 16 16 16 16 16 17 17 17 17 17 18 18 18 18 18 17 17 17 17 16 16 16 16 16 16 16 16 16 16 16 16 17 17 17 17 16 16 16 16 16 15 15 14 14 14 13 13 13 12 12 12 12 12 12 12 13 13 13 13
Wind_Direction
340 341 341 341 339 338 336 334 332 331 331 331 331 331 331 330 329 328 327 327 328 328 327 326 325 323 322 321 319 315 308 298 285 273 263 257 252 250 248 248 247 247 247 247 247 247 247 246 245 243 241 240 239 239 239 239 239 239 239 239 239 239 239 239 240 239 239 238 238 238 238 239 239 239 239 239 238 238 238 239 239 239 239 239 239
338 339 339 339 338 336 334 332 331 329 329 329 330 330 330 330 329 329 329 329 330 330 329 328 327 325 323 322 321 319 314 306 295 282 270 262 255 251 249 248 248 248 248 248 249 249 249 248 246 244 243 242 240 239 239 239 240 240 239 238 238 239 239 239 239 239 239 239 238 238 238 239 240 239 239 239 239 239 239 239 239 239 239 239 239
337 337 337 336 336 335 333 331 329 328 328 328 328 328 329 329 328 329 330 330 331 332 331 330 329 327 325 323 322 321 318 312 303 291 279 268 260 255 252 250 250 249 250 250 251 251 251 250 249 246 244 243 242 240 240 240 240 239 238 238 238 238 238 239 239 239 240 239 239 239 239 239 240 239 239 239 239 239 239 239 240 239 239 239 239
336 335 334 334 334 334 332 331 329 327 327 326 326 326 327 327 328 328 329 330 331 332 331 331 330 329 327 324 322 321 319 315 308 298 286 275 266 260 256 253 252 252 252 252 253 253 253 252 251 248 247 245 244 242 241 241 240 239 237 237 237 237 237 238 239 239 240 240 239 239 239 239 240 240 240 240 240 239 239 240 240 240 240 239 240
335 334 333 333 332 332 331 331 329 326 325 324 324 324 325 326 327 328 328 328 330 331 330 331 331 330 328 325 322 319 318 315 310 302 292 281 272 265 260 257 255 255 254 254 254 254 254 253 252 250 249 247 245 243 242 241 241 239 237 237 236 237 237 238 238 238 239 239 239 238 238 239 239 239 239 240 240 240 239 239 240 240 240 240 240
334 333 333 332 331 331 331 330 328 326 325 324 323 323 324 325 326 327 327 327 328 329 329 329 330 330 328 326 322 318 315 313 309 304 296 287 278 271 265 261 258 257 257 257 256 256 255 254 253 251 249 248 246 244 242 241 241 240 238 237 236 236 237 237 237 238 238 238 238 238 238 238 238 238 239 239 239 239 239 239 240 240 240 241 241
333 333 332 331 330 330 330 329 328 326 325 323 322 322 322 324 324 325 326 327 327 328 328 328 329 329 328 326 323 318 315 311 308 305 300 292 284 276 270 266 262 260 259 258 257 257 256 255 254 252 250 249 247 245 242 241 240 240 239 237 236 235 235 235 236 237 238 238 238 238 238 238 238 238 238 238 239 239 239 239 239 239 240 241 242
333 332 331 330 330 329 329 328 327 326 324 323 322 322 321 322 322 324 325 326 327 327 327 328 328 328 327 327 324 320 315 312 308 306 302 296 289 282 276 270 267 264 261 260 258 257 256 256 255 254 252 250 248 246 244 242 240 240 239 238 237 235 235 235 236 237 238 238 238 238 238 238 238 238 238 238 238 238 238 238 239 239 240 241 242
332 331 330 330 329 329 328 328 326 325 324 323 322 321 321 320 320 321 323 324 325 326 327 327 328 327 328 329 328 323 318 315 312 308 303 298 293 287 281 276 271 268 264 262 260 257 256 256 255 254 253 251 249 247 246 244 242 240 239 238 238 237 236 236 237 238 238 238 238 238 238 238 238 238 237 237 238 238 238 238 239 239 240 241 241
331 331 330 330 329 328 328 327 326 325 324 323 321 320 319 319 319 319 320 321 323 324 325 327 328 328 328 330 330 327 323 319 315 310 304 298 293 288 284 280 276 272 268 264 262 260 258 257 256 255 253 251 249 247 246 245 243 242 240 239 238 238 237 237 237 237 238 238 238 237 238 238 238 238 238 238 238 238 238 238 238 239 240 240 241
331 331 330 329 329 328 327 327 326 326 325 323 321 319 318 318 318 317 317 318 320 321 323 325 326 328 329 329 330 329 327 322 317 313 309 302 293 286 282 280 277 275 271 267 264 262 260 258 257 256 254 252 249 247 245 244 243 242 241 240 239 238 237 237 237 237 237 237 237 237 237 237 238 238 238 238 238 238 238 238 238 238 238 239 241
332 331 330 330 329 328 327 326 326 326 325 323 321 318 317 317 316 315 315 315 316 317 319 321 323 326 328 328 328 329 329 326 322 317 314 308 299 289 282 279 277 275 273 271 268 265 263 261 259 257 255 253 251 248 246 243 242 240 240 240 239 238 236 235 235 235 236 236 237 237 237 237 237 237 237 237 237 237 237 237 237 238 238 238 240
333 331 330 330 329 328 328 327 327 326 325 323 321 319 317 315 315 314 313 312 313 313 315 317 320 323 325 326 326 328 330 330 327 322 318 313 307 298 288 280 277 275 273 273 271 268 265 263 261 259 256 254 252 250 248 245 243 240 239 238 238 237 236 235 234 235 235 236 237 237 237 237 237 237 236 236 236 237 237 237 237 237 237 238 239
334 332 331 330 330 329 328 328 328 327 326 324 321 319 317 315 314 314 312 310 310 310 311 312 315 318 322 324 325 326 329 330 329 327 324 317 310 304 298 287 279 275 274 273 272 270 267 264 262 260 258 256 253 251 249 248 246 242 239 238 236 235 234 235 235 235 235 235 236 237 237 237 237 238 237 237 237 237 237 237 237 237 237 238 239
334 333 332 332 331 330 329 328 328 328 327 325 323 321 319 317 315 314 312 309 308 307 308 309 310 313 317 321 323 324 327 328 328 328 328 322 312 303 298 293 285 279 275 273 272 271 268 265 263 262 260 257 255 252 249 248 247 244 241 238 237 236 235 236 236 235 235 235 236 237 236 236 237 238 237 237 237 238 238 238 238 238 237 238 239
334 334 334 333 332 331 330 329 328 328 328 327 325 323 321 319 316 314 313 310 307 305 304 305 307 309 312 317 320 321 323 324 324 327 330 330 323 310 298 292 290 286 279 274 272 271 270 267 265 263 261 259 256 253 250 248 246 244 241 238 237 237 237 237 238 238 237 236 236 236 236 236 237 237 236 236 237 237 237 237 237 237 237 237 239
333 333 334 334 333 332 332 330 329 328 328 328 327 326 323 321 318 316 314 312 309 305 302 302 304 306 308 312 315 318 319 320 321 324 328 331 331 324 310 296 290 289 285 279 274 271 269 267 265 264 263 261 258 254 250 247 245 244 242 239 237 237 237 237 237 237 237 236 235 235 236 237 237 236 236 236 236 236 236 236 236 236 236 237 238
333 333 333 333 334 334 332 331 330 329 329 329 328 327 325 323 320 318 315 313 311 308 304 301 301 303 305 307 311 314 316 317 319 322 325 327 327 326 322 311 298 292 290 286 279 273 268 265 264 263 263 263 262 258 253 248 245 244 243 241 239 238 237 236 235 234 234 235 235 235 236 237 237 236 235 236 236 235 235 235 236 236 236 237 239
333 333 332 332 333 334 333 332 331 330 330 329 328 327 327 325 322 319 317 314 313 310 306 302 300 302 303 304 307 310 312 314 316 318 320 322 322 321 319 317 310 302 297 292 286 280 273 268 264 263 262 262 262 261 257 251 247 245 244 242 241 241 240 237 234 233 233 233 234 235 236 236 237 236 236 236 236 236 235 234 235 236 237 238 239
333 333 332 332 332 333 333 333 332 331 330 329 328 328 328 327 325 322 319 317 314 312 308 303 300 301 302 303 304 307 309 310 312 313 315 317 319 317 313 312 311 308 304 298 292 286 280 275 270 265 263 262 260 260 259 254 249 248 246 243 242 242 241 238 236 235 234 234 234 235 235 236 236 236 236 236 236 236 235 234 234 235 236 237 238
333 333 332 332 331 332 333 333 332 331 330 329 329 328 328 328 327 325 323 320 316 314 312 307 301 300 301 302 302 304 306 307 308 310 312 313 313 312 308 306 306 306 304 300 296 291 286 282 276 269 266 264 261 260 259 255 251 249 247 245 244 244 243 241 239 237 236 236 236 235 235 236 236 236 236 236 236 237 236 234 233 234 235 236 238
333 332 332 332 331 331 332 332 333 332 331 330 329 328 329 330 329 328 326 323 320 317 315 311 306 302 301 302 302 302 304 306 306 307 309 309 308 307 304 302 301 302 300 298 296 295 292 288 282 275 270 267 264 261 259 257 254 251 249 247 246 245 245 244 243 241 239 238 237 237 236 235 235 235 235 235 236 236 236 235 234 235 235 236 238
332 332 332 331 331 331 331 332 333 333 332 330 329 329 329 330 330 330 328 326 323 321 318 316 312 307 303 303 302 302 304 305 306 306 307 306 305 304 302 300 298 297 296 295 295 295 294 291 287 281 276 271 267 264 260 257 254 253 253 251 248 247 248 247 245 243 242 241 239 238 237 236 235 235 234 235 235 235 236 236 235 235 236 237 238
331 331 331 331 331 330 331 332 333 333 333 331 330 329 330 330 330 330 330 328 327 324 322 320 317 312 308 304 302 303 304 305 306 307 306 306 304 302 300 298 296 293 290 289 290 292 292 291 288 285 281 277 272 268 264 260 255 253 253 253 251 250 250 248 244 242 242 241 240 239 237 235 235 235 234 234 234 234 235 236 235 235 236 237 239
330 330 331 331 331 330 331 331 332 333 334 333 332 331 331 330 330 330 330 330 329 327 324 322 319 315 311 306 303 303 304 305 306 306 306 305 304 302 300 297 294 291 287 285 286 289 289 289 289 287 284 280 276 272 267 264 260 256 253 253 251 251 252 248 243 241 241 240 240 239 237 235 235 235 234 234 234 233 234 235 234 234 235 236 239
328 329 330 330 331 331 331 331 332 333 334 335 335 333 332 331 331 330 330 330 330 329 327 323 320 317 314 310 306 305 305 305 305 305 305 305 304 303 301 298 294 291 286 283 284 286 287 286 286 286 285 283 281 277 272 268 264 260 256 253 251 251 252 249 243 240 241 241 240 240 238 235 234 234 234 234 233 233 233 233 233 233 234 236 238
327 328 329 330 331 331 331 331 332 333 335 337 337 336 334 333 332 331 331 331 331 330 328 324 321 318 316 313 309 307 307 306 305 305 305 306 306 304 301 298 295 291 285 282 284 285 285 284 284 285 285 284 283 282 280 275 269 263 258 255 251 249 249 247 244 243 243 243 241 240 237 234 233 234 234 233 233 232 232 232 232 232 233 235 237
325 326 327 329 330 331 331 331 331 333 335 337 338 338 337 335 334 332 332 332 331 330 328 326 323 321 318 315 311 309 308 307 306 305 305 305 305 303 300 297 294 289 283 281 283 283 282 282 282 284 285 285 285 284 283 281 278 271 263 257 252 248 246 244 243 244 245 244 242 239 235 233 233 234 234 234 233 232 231 231 231 232 233 234 236
323 324 326 328 329 330 331 331 331 332 334 337 339 339 338 337 335 334 334 334 333 332 331 330 328 325 320 316 313 311 310 308 307 306 304 304 304 302 299 296 292 286 281 280 280 279 279 280 282 284 286 288 288 288 286 284 282 279 272 264 255 250 247 244 242 242 243 242 239 236 234 233 233 234 234 234 233 232 231 231 231 232 233 234 236
321 323 324 326 328 329 330 330 331 332 333 335 337 338 339 339 337 336 336 336 336 335 335 335 333 329 323 319 317 314 312 311 309 307 306 305 304 303 302 298 292 285 282 280 277 276 277 279 282 285 287 288 288 288 288 287 285 282 279 272 261 254 249 245 242 241 241 239 237 235 234 234 234 235 235 235 234 233 232 231 232 233 234 235 236
318 320 323 325 326 327 328 329 330 331 332 334 336 337 339 340 339 338 338 338 338 338 338 338 336 333 328 324 321 320 318 316 314 311 308 306 305 304 303 301 296 290 285 280 276 277 278 279 281 285 288 288 288 288 289 288 287 283 280 276 268 260 253 248 245 242 240 239 238 236 235 235 235 236 235 235 234 234 233 233 233 234 234 235 236
316 318 320 323 324 325 326 327 328 329 331 332 334 336 338 339 340 340 341 340 340 340 341 341 340 338 335 331 328 327 326 323 319 314 310 307 306 305 303 302 301 295 285 277 275 277 279 281 284 288 291 291 291 290 289 288 285 282 280 278 274 268 260 254 251 247 243 241 240 238 237 237 237 236 235 235 235 234 234 233 234 234 235 236 236
313 316 318 321 323 323 324 326 327 328 330 330 332 335 337 337 338 339 341 342 342 342 342 343 344 343 341 338 335 334 333 329 324 317 312 310 309 306 303 303 305 300 288 278 275 278 279 281 285 289 292 294 295 293 290 288 284 281 279 277 276 273 267 260 255 251 247 244 243 241 240 240 238 237 237 236 235 235 235 234 234 234 235 236 236
310 313 315 318 321 322 322 324 326 327 328 329 330 332 335 336 337 338 338 340 342 343 344 345 346 346 346 344 341 340 338 335 330 324 319 316 314 309 302 300 303 302 294 283 278 277 278 281 285 290 292 293 294 294 292 289 286 283 280 278 276 274 270 265 260 255 250 247 244 243 241 241 240 240 238 237 236 236 236 235 235 235 236 236 235
308 310 313 316 318 320 321 322 324 326 327 327 328 331 333 334 335 337 338 339 340 340 342 344 346 347 348 347 346 345 344 342 338 333 328 323 318 312 304 300 299 299 295 287 280 277 279 282 286 290 291 291 292 292 291 290 288 285 283 280 277 274 270 266 263 260 256 251 248 245 244 243 243 242 239 238 237 237 237 236 235 234 234 234 233
305 308 311 314 316 318 319 321 323 325 325 326 327 330 331 332 333 335 337 338 338 339 340 342 344 347 349 350 350 351 350 348 344 341 337 333 326 318 310 305 302 298 294 288 282 280 280 283 286 288 289 290 290 290 289 288 288 287 286 283 279 276 271 267 264 262 260 257 254 250 248 246 245 244 242 239 237 237 238 237 236 234 233 231 230
302 305 309 312 314 316 318 319 321 323 323 325 327 328 329 330 331 333 334 336 337 339 341 342 343 346 349 351 353 354 354 352 349 346 343 340 335 326 315 309 306 302 297 291 285 283 283 283 284 286 287 289 289 288 287 286 286 286 287 286 282 278 274 270 266 263 261 260 259 257 253 249 247 247 246 242 238 237 238 237 236 234 232 230 229
300 303 307 310 312 314 316 317 319 321 322 323 325 327 328 328 329 331 332 334 336 338 340 341 343 345 347 350 353 354 355 354 352 350 347 343 339 332 323 314 308 305 301 295 289 285 284 283 284 284 285 286 287 287 286 285 284 284 285 285 284 281 278 274 269 265 262 261 261 259 256 252 248 246 246 243 239 236 237 237 235 233 231 229 229
298 301 303 306 309 311 313 315 317 319 321 322 324 326 327 328 328 329 330 331 334 336 338 341 342 343 345 347 350 353 355 355 353 350 347 344 340 336 330 322 313 307 303 298 293 288 284 283 283 284 284 285 286 285 284 284 284 283 283 283 283 282 280 276 272 268 265 263 261 259 257 254 249 245 243 242 239 236 235 235 234 232 230 230 230
296 299 302 304 306 308 311 313 315 316 318 321 323 325 326 326 327 328 328 329 331 333 336 339 340 341 342 344 347 350 353 353 352 349 346 343 340 337 333 328 321 313 306 301 297 293 289 285 283 283 284 285 285 284 283 283 283 283 283 282 281 281 281 278 274 271 267 264 261 258 257 255 252 247 243 241 239 236 234 234 233 232 231 231 231
295 298 300 302 303 305 308 311 312 314 316 319 321 323 324 325 326 327 326 327 328 330 332 335 337 339 340 342 345 347 349 349 349 348 346 342 339 336 332 329 325 320 312 306 301 296 292 288 285 283 283 284 285 284 283 282 282 283 283 282 281 281 280 278 274 271 268 264 261 258 256 256 254 249 244 240 238 235 233 232 232 231 232 233 233
294 296 298 299 300 303 305 307 309 311 313 316 318 321 322 324 325 326 325 325 326 327 329 331 333 336 338 341 342 344 345 345 346 346 345 342 338 335 332 329 325 322 317 311 305 299 295 291 288 285 284 284 285 284 284 283 282 282 283 283 283 282 280 278 275 272 269 265 261 258 255 254 254 251 246 241 237 235 232 231 232 232 233 234 235
293 293 295 296 298 300 302 304 306 308 310 313 316 318 320 322 323 324 325 324 324 324 326 327 329 332 335 338 340 341 341 342 342 343 343 341 338 334 330 326 324 321 318 314 308 302 296 292 289 286 285 285 285 285 284 283 281 281 282 283 284 283 282 280 278 275 271 267 263 259 254 252 251 250 247 242 238 235 233 233 233 234 235 235 236
291 291 292 293 296 298 300 301 302 304 307 310 313 315 318 320 321 322 323 323 323 322 323 324 326 328 331 334 336 338 339 339 340 340 340 340 338 335 330 325 321 319 316 314 311 306 300 294 290 287 285 284 285 285 284 283 282 281 280 280 282 282 282 281 279 277 274 270 265 261 255 251 248 246 246 243 240 236 234 233 233 234 235 235 236
288 288 289 291 294 295 296 297 298 301 304 306 309 312 315 317 319 320 321 321 321 321 321 322 324 325 327 330 332 334 335 336 337 337 338 338 337 335 332 328 323 318 315 312 310 308 304 299 294 289 286 284 283 284 284 284 284 282 280 279 278 278 278 278 277 275 273 270 267 262 257 252 248 244 242 242 240 238 235 234 233 233 234 235 236
286 286 286 288 291 292 293 294 295 298 300 303 306 309 312 314 316 317 318 319 320 319 319 320 322 323 325 327 329 330 331 332 333 334 334 334 334 334 332 329 326 321 317 313 310 308 305 302 298 293 289 285 283 282 282 282 283 283 281 279 277 276 276 276 274 273 271 269 266 262 258 254 250 246 242 240 239 237 236 236 235 235 234 235 235
283 284 284 286 288 289 290 291 292 295 297 300 302 306 308 311 314 315 316 317 318 318 318 319 320 321 323 325 326 328 329 329 329 330 330 330 331 331 330 329 327 323 320 316 312 309 305 302 299 296 292 288 284 282 280 280 280 280 280 279 277 275 275 274 273 271 270 268 265 261 257 254 250 247 244 241 238 236 235 234 234 234 234 233 233
281 282 283 284 285 286 287 288 289 291 294 297 300 303 306 309 311 313 314 315 316 317 317 317 318 319 320 322 324 326 327 327 327 327 327 327 327 327 327 327 326 323 321 318 315 311 307 304 301 297 294 290 286 283 280 278 277 277 276 276 276 275 275 273 271 270 269 267 264 260 256 253 249 247 244 241 238 236 235 233 232 231 230 230 229
280 281 281 281 282 283 284 285 287 288 291 294 296 299 302 306 308 310 312 313 314 315 316 316 316 317 318 320 322 324 325 325 326 325 325 324 324 324 324 324 324 323 321 319 316 313 309 306 303 299 295 292 288 284 281 278 277 275 274 274 274 274 273 271 269 268 267 264 261 257 254 251 248 245 243 241 239 237 235 233 232 230 227 226 225
279 279 279 279 279 280 282 284 285 286 288 291 293 295 299 302 304 307 309 310 312 313 314 315 315 316 317 318 320 321 323 324 324 323 323 323 323 322 322 322 321 320 320 319 317 314 311 307 304 301 297 293 290 286 283 280 277 275 274 273 272 272 270 268 267 266 265 261 257 254 252 249 246 244 242 240 239 237 234 233 231 229 227 225 223
277 278 277 277 277 278 280 281 283 284 286 288 290 292 295 297 300 302 305 306 308 310 312 313 314 315 316 317 318 319 321 321 322 322 322 322 321 321 321 320 319 318 318 317 316 315 312 309 305 302 298 295 292 288 284 281 278 276 274 272 271 270 268 266 265 264 263 260 256 253 250 248 246 244 242 239 238 236 234 232 231 229 227 225 223